GOES-R

Last updated on Dec. 11, 2016, 12:16 a.m. UTC

1 41866U 16071A   16345.02845630 -.00000179  00000-0  00000+0 0  9994
2 41866   0.0319 201.2779 0000332  94.1395  64.5993  1.00271344   252
UTC
Height (km)
Latitude
Longitude
Inclination
Orbital Period
UTC large
Height (km)
Speed (km/s)
/
Latitude / Longitude
Inclination (degrees)
Orbital Period (minutes)
Azimuth
Elevation
Range (km)
Doppler Factor
iOS Compass Heading
iOS Angle